TimePDT,TemperatureF,Dew PointF,Humidity,Sea Level PressureIn,VisibilityMPH,Wind Direction,Wind SpeedMPH,Gust SpeedMPH,PrecipitationIn,Events,Conditions,WindDirDegrees,DateUTC
12:15 AM,46.4,46.4,100,30.46,0.5,Calm,Calm,-,N/A,Fog,Fog,0,2013-03-11 07:15:00
12:35 AM,46.4,46.4,100,30.46,0.5,Calm,Calm,-,N/A,Fog,Fog,0,2013-03-11 07:35:00
12:55 AM,46.4,46.4,100,30.45,0.8,Calm,Calm,-,N/A,,Overcast,0,2013-03-11 07:55:00
1:15 AM,46.4,46.4,100,30.45,0.5,Calm,Calm,-,N/A,Fog,Fog,0,2013-03-11 08:15:00
1:35 AM,46.4,46.4,100,30.46,0.5,Calm,Calm,-,N/A,Fog,Fog,0,2013-03-11 08:35:00
1:55 AM,46.4,46.4,100,30.46,0.8,Calm,Calm,-,N/A,,Overcast,0,2013-03-11 08:55:00
2:15 AM,46.4,46.4,100,30.46,0.5,Calm,Calm,-,N/A,Fog,Fog,0,2013-03-11 09:15:00
2:35 AM,46.4,46.4,100,30.46,0.8,Calm,Calm,-,0.01,,Overcast,0,2013-03-11 09:35:00
3:15 AM,46.4,46.4,100,30.45,0.5,Calm,Calm,-,N/A,Fog,Fog,0,2013-03-11 10:15:00
3:35 AM,46.4,46.4,100,30.45,1.0,Calm,Calm,-,N/A,,Overcast,0,2013-03-11 10:35:00
3:55 AM,46.4,46.4,100,30.45,2.0,Calm,Calm,-,N/A,,Overcast,0,2013-03-11 10:55:00
4:15 AM,46.4,46.4,100,30.44,1.8,Calm,Calm,-,N/A,,Overcast,0,2013-03-11 11:15:00
4:35 AM,46.4,46.4,100,30.42,7.0,Calm,Calm,-,N/A,,Overcast,0,2013-03-11 11:35:00
4:55 AM,46.4,46.4,100,30.42,10.0,Calm,Calm,-,N/A,,Overcast,0,2013-03-11 11:55:00
5:15 AM,46.4,46.4,100,30.42,10.0,Calm,Calm,-,N/A,,Overcast,0,2013-03-11 12:15:00
5:35 AM,46.4,46.4,100,30.43,10.0,Calm,Calm,-,N/A,,Overcast,0,2013-03-11 12:35:00
5:55 AM,46.4,44.6,93,30.43,7.0,Calm,Calm,-,N/A,,Overcast,0,2013-03-11 12:55:00
6:15 AM,46.4,46.4,100,30.42,10.0,Calm,Calm,-,N/A,,Overcast,0,2013-03-11 13:15:00
6:35 AM,46.4,46.4,100,30.42,10.0,Calm,Calm,-,N/A,,Overcast,0,2013-03-11 13:35:00
6:55 AM,46.4,46.4,100,30.41,4.0,Calm,Calm,-,N/A,,Overcast,0,2013-03-11 13:55:00
7:15 AM,46.4,46.4,100,30.41,10.0,Calm,Calm,-,N/A,,Overcast,0,2013-03-11 14:15:00
7:35 AM,46.4,46.4,100,30.42,10.0,Calm,Calm,-,N/A,,Overcast,0,2013-03-11 14:35:00
7:55 AM,46.4,46.4,100,30.42,7.0,Calm,Calm,-,N/A,,Overcast,0,2013-03-11 14:55:00
8:15 AM,46.4,46.4,100,30.42,10.0,Calm,Calm,-,N/A,,Overcast,0,2013-03-11 15:15:00
8:35 AM,46.4,46.4,100,30.41,7.0,Calm,Calm,-,N/A,,Overcast,0,2013-03-11 15:35:00
8:55 AM,46.4,46.4,100,30.41,1.5,Calm,Calm,-,N/A,,Overcast,0,2013-03-11 15:55:00
9:15 AM,46.4,46.4,100,30.42,0.2,West,3.5,-,N/A,Fog,Fog,280,2013-03-11 16:15:00
9:35 AM,46.4,46.4,100,30.42,0.2,Calm,Calm,-,N/A,Fog,Fog,0,2013-03-11 16:35:00
9:55 AM,46.4,46.4,100,30.42,0.2,Calm,Calm,-,N/A,Fog,Fog,0,2013-03-11 16:55:00
10:15 AM,48.2,46.4,93,30.41,2.0,SSE,4.6,-,N/A,,Overcast,160,2013-03-11 17:15:00
10:35 AM,46.4,46.4,100,30.41,0.2,WSW,4.6,-,N/A,Fog,Fog,240,2013-03-11 17:35:00
10:55 AM,46.4,46.4,100,30.41,0.2,WSW,3.5,-,N/A,Fog,Fog,250,2013-03-11 17:55:00
11:15 AM,46.4,46.4,100,30.42,0.2,SW,4.6,-,N/A,Fog,Fog,230,2013-03-11 18:15:00
11:35 AM,46.4,46.4,100,30.41,0.2,SW,3.5,-,N/A,Fog,Fog,230,2013-03-11 18:35:00
11:55 AM,46.4,46.4,100,30.41,0.2,SSW,3.5,-,N/A,Fog,Fog,210,2013-03-11 18:55:00
12:15 PM,46.4,46.4,100,30.40,0.2,WSW,3.5,-,N/A,Fog,Fog,240,2013-03-11 19:15:00
12:35 PM,46.4,46.4,100,30.40,0.8,SW,6.9,-,N/A,,Overcast,230,2013-03-11 19:35:00
12:55 PM,46.4,46.4,100,30.41,1.8,SW,5.8,-,N/A,,Overcast,220,2013-03-11 19:55:00
1:15 PM,48.2,48.2,100,30.40,5.0,SW,4.6,-,N/A,,Overcast,230,2013-03-11 20:15:00
1:35 PM,48.2,48.2,100,30.40,10.0,SW,5.8,-,N/A,,Overcast,230,2013-03-11 20:35:00
1:55 PM,50.0,50.0,100,30.39,7.0,WSW,5.8,-,N/A,,Overcast,240,2013-03-11 20:55:00
2:15 PM,50.0,48.2,94,30.38,10.0,SSW,5.8,-,N/A,,Overcast,210,2013-03-11 21:15:00
2:35 PM,48.2,48.2,100,30.38,10.0,SSW,6.9,-,N/A,,Overcast,210,2013-03-11 21:35:00
2:55 PM,50.0,48.2,94,30.37,10.0,SW,5.8,-,N/A,,Overcast,230,2013-03-11 21:55:00
3:15 PM,48.2,48.2,100,30.37,1.8,SW,5.8,-,N/A,,Overcast,220,2013-03-11 22:15:00
3:35 PM,50.0,48.2,94,30.36,3.0,SW,3.5,-,N/A,,Overcast,220,2013-03-11 22:35:00
3:55 PM,50.0,48.2,94,30.36,7.0,WSW,3.5,-,N/A,,Overcast,240,2013-03-11 22:55:00
4:15 PM,50.0,46.4,87,30.36,5.0,WSW,3.5,-,N/A,,Overcast,240,2013-03-11 23:15:00
4:35 PM,48.2,46.4,93,30.35,7.0,SW,4.6,-,N/A,,Overcast,220,2013-03-11 23:35:00
4:55 PM,50.0,46.4,87,30.35,7.0,WSW,5.8,-,N/A,,Overcast,240,2013-03-11 23:55:00
5:15 PM,50.0,46.4,87,30.34,7.0,WSW,3.5,-,N/A,,Overcast,240,2013-03-12 00:15:00
5:35 PM,50.0,46.4,87,30.34,7.0,West,4.6,-,N/A,,Overcast,260,2013-03-12 00:35:00
5:55 PM,48.2,46.4,93,30.33,10.0,Calm,Calm,-,N/A,,Overcast,0,2013-03-12 00:55:00
6:15 PM,50.0,46.4,87,30.33,7.0,Calm,Calm,-,N/A,,Overcast,0,2013-03-12 01:15:00
6:35 PM,50.0,46.4,87,30.32,5.0,Calm,Calm,-,N/A,,Overcast,0,2013-03-12 01:35:00
6:55 PM,50.0,46.4,87,30.32,10.0,West,3.5,-,N/A,,Mostly Cloudy,260,2013-03-12 01:55:00
7:15 PM,48.2,46.4,93,30.33,2.0,Calm,Calm,-,N/A,,Overcast,0,2013-03-12 02:15:00
7:35 PM,48.2,46.4,93,30.32,4.0,Calm,Calm,-,N/A,,Overcast,0,2013-03-12 02:35:00
7:55 PM,48.2,46.4,93,30.32,5.0,Calm,Calm,-,N/A,,Overcast,0,2013-03-12 02:55:00
8:15 PM,48.2,46.4,93,30.32,5.0,Calm,Calm,-,N/A,,Overcast,0,2013-03-12 03:15:00
8:35 PM,48.2,46.4,93,30.32,7.0,Calm,Calm,-,N/A,,Overcast,0,2013-03-12 03:35:00
8:55 PM,48.2,46.4,93,30.31,5.0,Calm,Calm,-,N/A,,Overcast,0,2013-03-12 03:55:00
9:15 PM,48.2,46.4,93,30.31,4.0,Calm,Calm,-,N/A,,Overcast,0,2013-03-12 04:15:00
9:35 PM,46.4,46.4,100,30.32,4.0,Calm,Calm,-,N/A,,Overcast,0,2013-03-12 04:35:00
9:55 PM,46.4,46.4,100,30.31,5.0,Calm,Calm,-,N/A,,Overcast,0,2013-03-12 04:55:00
10:15 PM,46.4,46.4,100,30.31,7.0,Calm,Calm,-,N/A,,Overcast,0,2013-03-12 05:15:00
10:35 PM,46.4,46.4,100,30.30,5.0,Calm,Calm,-,N/A,,Scattered Clouds,0,2013-03-12 05:35:00
10:55 PM,46.4,46.4,100,30.30,4.0,Calm,Calm,-,N/A,,Clear,0,2013-03-12 05:55:00
11:15 PM,44.6,44.6,100,30.30,3.0,Calm,Calm,-,N/A,,Scattered Clouds,0,2013-03-12 06:15:00
11:35 PM,44.6,44.6,100,30.29,0.8,Calm,Calm,-,N/A,,Mist,0,2013-03-12 06:35:00
11:55 PM,44.6,44.6,100,30.28,7.0,Calm,Calm,-,N/A,,Scattered Clouds,0,2013-03-12 06:55:00